When you browse on this site, cookies collect data to enhance your experience and personalize the content and advertising you see.
Visit our Privacy Policy to learn more. By continuing to use the site, you agree to this use of cookies and data.
  • en Suisse
  • Liste des pays
  • À 7 jours
  • Température de l'eau
  • Carte satellitaire
  • Carte météo
  • Widgets météo
  • user-avatar
    Se connecter

    Météo par heure à Darwin

    Ce jour, 12 Décembre, Mercredi

    Heure Température Précipitation Vent Pression Humidité
    00:00 +32°C° 0.2 mm 5 m/s 754 mmHg 81%
    01:00 +32°C° 0 mm 5 m/s 754 mmHg 81%
    02:00 +32°C° 0 mm 5 m/s 754 mmHg 82%
    03:00 +32°C° 0 mm 5 m/s 753 mmHg 82%
    04:00 +32°C° 0 mm 5 m/s 753 mmHg 82%
    05:00 +32°C° 0 mm 5 m/s 753 mmHg 83%
    06:00 +32°C° 0 mm 5 m/s 754 mmHg 83%
    07:00 +33°C° 0 mm 5 m/s 754 mmHg 78%
    08:00 +34°C° 0 mm 5 m/s 754 mmHg 74%
    09:00 +35°C° 0 mm 5 m/s 755 mmHg 70%
    10:00 +36°C° 0 mm 5 m/s 754 mmHg 65%
    11:00 +38°C° 0 mm 6 m/s 754 mmHg 60%
    12:00 +39°C° 0 mm 6 m/s 754 mmHg 56%
    13:00 +39°C° 0 mm 6 m/s 753 mmHg 56%
    14:00 +39°C° 0 mm 7 m/s 753 mmHg 56%
    15:00 +39°C° 0 mm 7 m/s 752 mmHg 57%
    16:00 +38°C° 0 mm 7 m/s 752 mmHg 63%
    17:00 +36°C° 0 mm 7 m/s 752 mmHg 69%
    18:00 +34°C° 0 mm 7 m/s 752 mmHg 74%
    19:00 +34°C° 0 mm 6 m/s 753 mmHg 77%
    20:00 +33°C° 0 mm 6 m/s 753 mmHg 79%
    21:00 +33°C° 0 mm 6 m/s 753 mmHg 81%
    22:00 +33°C° 0 mm 6 m/s 753 mmHg 81%
    23:00 +33°C° 0 mm 6 m/s 753 mmHg 81%

    Demain, 13 Décembre, Jeudi

    Heure Température Précipitation Vent Pression Humidité
    00:00 +33°C° 0 mm 6 m/s 753 mmHg 81%
    01:00 +33°C° 0.1 mm 7 m/s 753 mmHg 81%
    02:00 +33°C° 0.1 mm 7 m/s 753 mmHg 80%
    03:00 +33°C° 0.1 mm 8 m/s 753 mmHg 80%
    04:00 +33°C° 0.1 mm 7 m/s 753 mmHg 80%
    05:00 +33°C° 0.1 mm 7 m/s 753 mmHg 80%
    06:00 +33°C° 0.1 mm 7 m/s 753 mmHg 80%
    07:00 +34°C° 0 mm 7 m/s 754 mmHg 76%
    08:00 +35°C° 0 mm 7 m/s 754 mmHg 71%
    09:00 +36°C° 0 mm 7 m/s 754 mmHg 67%
    10:00 +36°C° 0 mm 7 m/s 754 mmHg 65%
    11:00 +38°C° 0 mm 7 m/s 754 mmHg 62%
    12:00 +39°C° 0 mm 7 m/s 754 mmHg 59%
    13:00 +38°C° 0 mm 7 m/s 753 mmHg 61%
    14:00 +38°C° 0 mm 8 m/s 753 mmHg 63%
    15:00 +37°C° 0 mm 8 m/s 752 mmHg 64%
    16:00 +37°C° 0 mm 8 m/s 752 mmHg 67%
    17:00 +35°C° 0 mm 8 m/s 752 mmHg 70%
    18:00 +34°C° 0 mm 7 m/s 752 mmHg 72%
    19:00 +34°C° 0 mm 7 m/s 753 mmHg 74%
    20:00 +34°C° 0 mm 7 m/s 753 mmHg 75%
    21:00 +33°C° 0 mm 8 m/s 753 mmHg 77%
    22:00 +33°C° 0 mm 7 m/s 753 mmHg 78%
    23:00 +33°C° 0 mm 7 m/s 753 mmHg 78%

    Après-demain, 14 Décembre, Vendredi

    Heure Température Précipitation Vent Pression Humidité
    00:00 +33°C° 0 mm 7 m/s 754 mmHg 79%
    01:00 +32°C° 2.5 mm 7 m/s 753 mmHg 82%
    02:00 +32°C° 2.5 mm 6 m/s 753 mmHg 84%
    03:00 +30°C° 2.5 mm 6 m/s 753 mmHg 86%
    04:00 +30°C° 4.9 mm 6 m/s 753 mmHg 86%
    05:00 +29°C° 4.9 mm 6 m/s 754 mmHg 86%
    06:00 +29°C° 4.9 mm 6 m/s 754 mmHg 87%
    07:00 +30°C° 0.4 mm 6 m/s 754 mmHg 84%
    08:00 +30°C° 0.4 mm 6 m/s 754 mmHg 81%
    09:00 +32°C° 0.4 mm 7 m/s 754 mmHg 79%
    10:00 +34°C° 0 mm 7 m/s 754 mmHg 73%
    11:00 +35°C° 0 mm 7 m/s 753 mmHg 66%
    12:00 +38°C° 0 mm 8 m/s 753 mmHg 60%
    13:00 +38°C° 0 mm 8 m/s 752 mmHg 61%
    14:00 +38°C° 0 mm 8 m/s 752 mmHg 61%
    15:00 +38°C° 0 mm 8 m/s 751 mmHg 61%
    16:00 +36°C° 0 mm 7 m/s 752 mmHg 65%
    17:00 +35°C° 0 mm 7 m/s 752 mmHg 69%
    18:00 +34°C° 0 mm 6 m/s 752 mmHg 73%
    19:00 +34°C° 0 mm 6 m/s 753 mmHg 75%
    20:00 +33°C° 0 mm 5 m/s 753 mmHg 77%
    21:00 +33°C° 0 mm 4 m/s 754 mmHg 80%
    22:00 +32°C° 0.8 mm 5 m/s 754 mmHg 81%
    23:00 +32°C° 0.8 mm 5 m/s 754 mmHg 82%

    15 Décembre, Samedi

    Heure Température Précipitation Vent Pression Humidité
    00:00 +32°C° 0.8 mm 5 m/s 753 mmHg 83%
    01:00 +30°C° 1 mm 5 m/s 753 mmHg 84%
    02:00 +30°C° 1 mm 5 m/s 752 mmHg 84%
    03:00 +30°C° 1 mm 5 m/s 752 mmHg 85%
    04:00 +30°C° 2.3 mm 5 m/s 752 mmHg 86%
    05:00 +30°C° 2.3 mm 5 m/s 752 mmHg 87%
    06:00 +30°C° 2.3 mm 5 m/s 753 mmHg 89%
    07:00 +30°C° 2.3 mm 5 m/s 753 mmHg 86%
    08:00 +32°C° 2.3 mm 5 m/s 754 mmHg 83%
    09:00 +33°C° 2.3 mm 5 m/s 754 mmHg 80%
    10:00 +34°C° 0.9 mm 5 m/s 754 mmHg 76%
    11:00 +35°C° 0.9 mm 5 m/s 753 mmHg 71%
    12:00 +36°C° 0.9 mm 5 m/s 753 mmHg 67%
    13:00 +36°C° 0.7 mm 5 m/s 753 mmHg 69%
    14:00 +36°C° 0.7 mm 6 m/s 752 mmHg 71%
    15:00 +35°C° 0.7 mm 6 m/s 752 mmHg 73%
    16:00 +35°C° 0.7 mm 5 m/s 752 mmHg 76%
    17:00 +34°C° 0.7 mm 5 m/s 752 mmHg 80%
    18:00 +33°C° 0.7 mm 4 m/s 752 mmHg 83%
    19:00 +33°C° 0.2 mm 4 m/s 753 mmHg 85%
    20:00 +32°C° 0.2 mm 4 m/s 753 mmHg 88%
    21:00 +31°C° 0.2 mm 3 m/s 754 mmHg 90%
    22:00 +30°C° 0.4 mm 4 m/s 754 mmHg 91%
    23:00 +30°C° 0.4 mm 4 m/s 754 mmHg 91%

    16 Décembre, Dimanche

    Heure Température Précipitation Vent Pression Humidité
    00:00 +30°C° 0.4 mm 4 m/s 754 mmHg 92%
    01:00 +30°C° 0.3 mm 4 m/s 753 mmHg 92%
    02:00 +30°C° 0.3 mm 5 m/s 753 mmHg 93%
    03:00 +30°C° 0.3 mm 5 m/s 753 mmHg 93%
    04:00 +30°C° 0.1 mm 5 m/s 753 mmHg 93%
    05:00 +30°C° 0.1 mm 4 m/s 753 mmHg 93%
    06:00 +30°C° 0.1 mm 4 m/s 754 mmHg 93%
    07:00 +32°C° 0.4 mm 4 m/s 754 mmHg 87%
    08:00 +33°C° 0.4 mm 4 m/s 755 mmHg 82%
    09:00 +34°C° 0.4 mm 4 m/s 755 mmHg 77%
    10:00 +36°C° 0.1 mm 4 m/s 755 mmHg 70%
    11:00 +37°C° 0.1 mm 4 m/s 755 mmHg 63%
    12:00 +38°C° 0.1 mm 4 m/s 754 mmHg 56%
    13:00 +38°C° 0.4 mm 4 m/s 754 mmHg 57%
    14:00 +38°C° 0.4 mm 4 m/s 753 mmHg 59%
    15:00 +37°C° 0.4 mm 4 m/s 752 mmHg 60%
    16:00 +37°C° 0.3 mm 4 m/s 753 mmHg 65%
    17:00 +36°C° 0.3 mm 5 m/s 753 mmHg 70%
    18:00 +35°C° 0.3 mm 5 m/s 753 mmHg 75%
    19:00 +34°C° 0 mm 4 m/s 754 mmHg 79%
    20:00 +33°C° 0 mm 4 m/s 754 mmHg 82%
    21:00 +32°C° 0 mm 4 m/s 755 mmHg 86%
    22:00 +32°C° 0.2 mm 4 m/s 754 mmHg 87%
    23:00 +32°C° 0.2 mm 4 m/s 754 mmHg 88%

    17 Décembre, Lundi

    Heure Température Précipitation Vent Pression Humidité
    00:00 +31°C° 0.2 mm 3 m/s 754 mmHg 90%
    01:00 +32°C° 0.2 mm 4 m/s 754 mmHg 90%
    02:00 +30°C° 0.2 mm 4 m/s 753 mmHg 91%
    03:00 +30°C° 0.2 mm 4 m/s 753 mmHg 92%
    04:00 +30°C° 0.4 mm 4 m/s 753 mmHg 92%
    05:00 +30°C° 0.4 mm 4 m/s 754 mmHg 92%
    06:00 +30°C° 0.4 mm 4 m/s 755 mmHg 92%
    07:00 +31°C° 0.3 mm 3 m/s 755 mmHg 86%
    08:00 +33°C° 0.3 mm 3 m/s 755 mmHg 80%
    09:00 +35°C° 0.3 mm 3 m/s 756 mmHg 74%
    10:00 +36°C° 0.3 mm 3 m/s 755 mmHg 67%
    11:00 +37°C° 0.3 mm 4 m/s 755 mmHg 61%
    12:00 +40°C° 0.3 mm 4 m/s 754 mmHg 54%
    13:00 +39°C° 0 mm 5 m/s 754 mmHg 54%
    14:00 +39°C° 0 mm 5 m/s 753 mmHg 53%
    15:00 +39°C° 0 mm 5 m/s 753 mmHg 53%
    16:00 +37°C° 0 mm 4 m/s 753 mmHg 58%
    17:00 +36°C° 0 mm 4 m/s 753 mmHg 63%
    18:00 +35°C° 0 mm 4 m/s 754 mmHg 68%
    19:00 +34°C° 0 mm 4 m/s 754 mmHg 72%
    20:00 +33°C° 0 mm 4 m/s 754 mmHg 76%
    21:00 +33°C° 0 mm 5 m/s 755 mmHg 80%
    22:00 +32°C° 0.5 mm 4 m/s 755 mmHg 83%
    23:00 +32°C° 0.5 mm 4 m/s 755 mmHg 85%
    Voir plus